TimeEDT,TemperatureF,Dew PointF,Humidity,Sea Level PressureIn,VisibilityMPH,Wind Direction,Wind SpeedMPH,Gust SpeedMPH,PrecipitationIn,Events,Conditions,WindDirDegrees,DateUTC
12:15 AM,75.2,73.4,94,30.15,7.0,Calm,Calm,-,N/A,,Clear,0,2012-10-04 04:15:00
12:35 AM,73.4,73.4,100,30.15,7.0,Calm,Calm,-,N/A,,Clear,0,2012-10-04 04:35:00
12:55 AM,73.4,73.4,100,30.15,7.0,Calm,Calm,-,N/A,,Clear,0,2012-10-04 04:55:00
1:15 AM,73.4,71.6,94,30.15,7.0,Calm,Calm,-,N/A,,Clear,0,2012-10-04 05:15:00
1:35 AM,73.4,71.6,94,30.15,5.0,Calm,Calm,-,N/A,,Clear,0,2012-10-04 05:35:00
1:55 AM,73.4,71.6,94,30.15,4.0,Calm,Calm,-,N/A,,Clear,0,2012-10-04 05:55:00
2:15 AM,73.4,71.6,94,30.15,4.0,Calm,Calm,-,N/A,,Scattered Clouds,0,2012-10-04 06:15:00
2:35 AM,73.4,71.6,94,30.15,4.0,Calm,Calm,-,N/A,,Clear,0,2012-10-04 06:35:00
2:55 AM,71.6,71.6,100,30.14,1.8,Calm,Calm,-,N/A,,Mist,0,2012-10-04 06:55:00
3:15 AM,71.6,71.6,100,30.14,1.0,Calm,Calm,-,N/A,,Mist,0,2012-10-04 07:15:00
3:35 AM,71.6,71.6,100,30.13,1.0,Calm,Calm,-,N/A,,Mist,0,2012-10-04 07:35:00
3:55 AM,71.6,71.6,100,30.13,0.8,Calm,Calm,-,N/A,,Mist,0,2012-10-04 07:55:00
4:15 AM,71.6,71.6,100,30.14,3.0,Calm,Calm,-,N/A,,Clear,0,2012-10-04 08:15:00
4:35 AM,71.6,71.6,100,30.14,4.0,Calm,Calm,-,N/A,,Clear,0,2012-10-04 08:35:00
4:55 AM,71.6,71.6,100,30.15,4.0,Calm,Calm,-,N/A,,Clear,0,2012-10-04 08:55:00
5:15 AM,71.6,71.6,100,30.15,4.0,Calm,Calm,-,N/A,,Clear,0,2012-10-04 09:15:00
5:35 AM,71.6,69.8,94,30.15,4.0,Calm,Calm,-,N/A,,Clear,0,2012-10-04 09:35:00
5:55 AM,71.6,71.6,100,30.16,5.0,Calm,Calm,-,N/A,,Clear,0,2012-10-04 09:55:00
6:15 AM,71.6,69.8,94,30.17,3.0,Calm,Calm,-,N/A,,Scattered Clouds,0,2012-10-04 10:15:00
6:35 AM,71.6,69.8,94,30.17,4.0,Calm,Calm,-,0.01,,Scattered Clouds,0,2012-10-04 10:35:00
6:55 AM,71.6,71.6,100,30.17,4.0,Calm,Calm,-,N/A,,Overcast,0,2012-10-04 10:55:00
7:15 AM,71.6,71.6,100,30.17,4.0,Calm,Calm,-,N/A,,Overcast,0,2012-10-04 11:15:00
7:35 AM,71.6,71.6,100,30.17,5.0,Calm,Calm,-,N/A,,Overcast,0,2012-10-04 11:35:00
7:55 AM,71.6,71.6,100,30.17,3.0,Calm,Calm,-,N/A,,Overcast,0,2012-10-04 11:55:00
8:15 AM,73.4,71.6,94,30.17,4.0,Calm,Calm,-,N/A,,Overcast,0,2012-10-04 12:15:00
8:35 AM,73.4,71.6,94,30.18,5.0,Calm,Calm,-,N/A,,Overcast,0,2012-10-04 12:35:00
8:55 AM,73.4,71.6,94,30.19,7.0,SW,4.6,-,N/A,,Overcast,230,2012-10-04 12:55:00
9:15 AM,75.2,71.6,89,30.20,10.0,WSW,3.5,-,N/A,,Overcast,250,2012-10-04 13:15:00
9:35 AM,75.2,71.6,89,30.19,10.0,Calm,Calm,-,N/A,,Mostly Cloudy,0,2012-10-04 13:35:00
9:55 AM,78.8,68.0,69,30.19,10.0,Calm,Calm,-,N/A,,Scattered Clouds,0,2012-10-04 13:55:00
10:15 AM,78.8,66.2,65,30.19,10.0,Calm,Calm,-,N/A,,Scattered Clouds,0,2012-10-04 14:15:00
10:35 AM,80.6,66.2,61,30.19,10.0,Calm,Calm,-,N/A,,Clear,0,2012-10-04 14:35:00
10:55 AM,80.6,64.4,58,30.19,10.0,West,8.1,-,N/A,,Clear,270,2012-10-04 14:55:00
11:15 AM,82.4,62.6,51,30.19,10.0,West,5.8,-,N/A,,Scattered Clouds,260,2012-10-04 15:15:00
11:35 AM,82.4,62.6,51,30.19,10.0,West,10.4,-,N/A,,Scattered Clouds,260,2012-10-04 15:35:00
11:55 AM,82.4,62.6,51,30.18,10.0,West,8.1,-,N/A,,Clear,260,2012-10-04 15:55:00
12:15 PM,82.4,60.8,48,30.18,10.0,WSW,5.8,-,N/A,,Clear,240,2012-10-04 16:15:00
12:35 PM,84.2,60.8,45,30.17,10.0,West,9.2,19.6,N/A,,Clear,260,2012-10-04 16:35:00
12:55 PM,84.2,62.6,48,30.16,10.0,West,9.2,-,N/A,,Scattered Clouds,260,2012-10-04 16:55:00
1:15 PM,80.6,60.8,51,30.15,10.0,WSW,8.1,-,N/A,,Scattered Clouds,240,2012-10-04 17:15:00
1:35 PM,82.4,62.6,51,30.16,10.0,WSW,10.4,18.4,N/A,,Mostly Cloudy,250,2012-10-04 17:35:00
1:55 PM,80.6,62.6,54,30.15,10.0,WSW,11.5,16.1,N/A,,Mostly Cloudy,240,2012-10-04 17:55:00
2:35 PM,82.4,64.4,54,30.13,10.0,SW,10.4,17.3,N/A,,Clear,230,2012-10-04 18:35:00
2:55 PM,80.6,64.4,58,30.12,10.0,SSW,9.2,16.1,N/A,,Clear,210,2012-10-04 18:55:00
3:15 PM,80.6,66.2,61,30.11,10.0,SSW,8.1,-,N/A,,Clear,210,2012-10-04 19:15:00
3:35 PM,82.4,66.2,58,30.11,10.0,SW,9.2,-,N/A,,Clear,230,2012-10-04 19:35:00
3:55 PM,80.6,66.2,61,30.11,10.0,SSW,9.2,-,N/A,,Clear,210,2012-10-04 19:55:00
4:15 PM,78.8,66.2,65,30.11,10.0,SSW,6.9,-,N/A,,Clear,210,2012-10-04 20:15:00
4:35 PM,78.8,66.2,65,30.11,10.0,SW,6.9,-,N/A,,Clear,230,2012-10-04 20:35:00
4:55 PM,78.8,66.2,65,30.11,10.0,WSW,4.6,-,N/A,,Clear,240,2012-10-04 20:55:00
5:15 PM,77.0,66.2,69,30.11,10.0,WSW,5.8,-,N/A,,Clear,240,2012-10-04 21:15:00
5:35 PM,77.0,64.4,65,30.12,10.0,SW,5.8,-,N/A,,Clear,230,2012-10-04 21:35:00
6:15 PM,75.2,64.4,69,30.13,10.0,WSW,5.8,-,N/A,,Clear,240,2012-10-04 22:15:00
6:55 PM,73.4,64.4,73,30.12,10.0,Calm,Calm,-,N/A,,Clear,0,2012-10-04 22:55:00
7:15 PM,71.6,64.4,78,30.12,10.0,Calm,Calm,-,N/A,,Clear,0,2012-10-04 23:15:00
7:35 PM,69.8,64.4,83,30.13,10.0,Calm,Calm,-,N/A,,Clear,0,2012-10-04 23:35:00
7:55 PM,69.8,64.4,83,30.13,10.0,Calm,Calm,-,N/A,,Clear,0,2012-10-04 23:55:00
8:15 PM,69.8,64.4,83,30.13,10.0,Calm,Calm,-,N/A,,Clear,0,2012-10-05 00:15:00
8:35 PM,68.0,64.4,88,30.13,10.0,Calm,Calm,-,N/A,,Clear,0,2012-10-05 00:35:00
8:55 PM,68.0,64.4,88,30.13,10.0,Calm,Calm,-,N/A,,Clear,0,2012-10-05 00:55:00
9:15 PM,68.0,64.4,88,30.14,10.0,Calm,Calm,-,N/A,,Clear,0,2012-10-05 01:15:00
9:35 PM,68.0,64.4,88,30.14,10.0,Calm,Calm,-,N/A,,Clear,0,2012-10-05 01:35:00
9:55 PM,68.0,64.4,88,30.14,10.0,Calm,Calm,-,N/A,,Clear,0,2012-10-05 01:55:00
10:15 PM,68.0,64.4,88,30.14,10.0,Calm,Calm,-,N/A,,Clear,0,2012-10-05 02:15:00
10:35 PM,66.2,64.4,94,30.15,10.0,Calm,Calm,-,N/A,,Clear,0,2012-10-05 02:35:00
10:55 PM,66.2,64.4,94,30.15,10.0,Calm,Calm,-,N/A,,Clear,0,2012-10-05 02:55:00
11:15 PM,66.2,64.4,94,30.15,10.0,Calm,Calm,-,N/A,,Clear,0,2012-10-05 03:15:00
11:35 PM,68.0,66.2,94,30.14,10.0,Calm,Calm,-,N/A,,Clear,0,2012-10-05 03:35:00
11:55 PM,66.2,66.2,100,30.14,10.0,Calm,Calm,-,N/A,,Clear,0,2012-10-05 03:55:00